Regional Weather Roundup
Issued by NWS Cleveland, OH

Home | Current Version | Previous Version | Text Only | Print | Product List | Glossary Off
Versions: 1 2 3 4 5 6 7 8 9 10 11 12 13 14 15 16 17 18 19 20 21 22 23 24 25 26 27 28 29 30 31 32 33 34 35 36 37 38 39 40 41 42 43 44 45 46 47 48 49 50

000
ASUS41 KCLE 161202
RWRCLE
OHIO REGIONAL WEATHER ROUNDUP
NATIONAL WEATHER SERVICE CLEVELAND, OH
800 AM EDT TUE SEP 16 2014

NOTE: "FAIR" INDICATES FEW OR NO CLOUDS BELOW 12,000 FEET WITH NO
SIGNIFICANT WEATHER AND/OR OBSTRUCTIONS TO VISIBILITY.

OHZ001>008-015>018-024>027-034-035-043-044-161300-
   NORTHWEST OHIO

CITY           SKY/WX    TMP DP  RH WIND       PRES   REMARKS
DEFIANCE       PTCLDY    51  48  89 CALM      30.19R FOG
FINDLAY        CLOUDY    55  51  86 N6        30.15S
TOLEDO EXPRESS PTCLDY    51  49  92 N5        30.16R
TOLEDO EXEC    CLEAR     52  49  89 N3        30.17R
LIMA           CLOUDY    54  51  90 N6        30.16R FOG
$$

OHZ009>014-019>023-028>033-038-089-161300-
   NORTHEAST OHIO

CITY           SKY/WX    TMP DP  RH WIND       PRES   REMARKS
CLE-HOPKINS    MOCLDY    53  52  96 SW5       30.14R FOG
CLE-LAKEFRONT  MOCLDY    59  51  75 N9        30.11R
CUY CO. ARPT   CLOUDY    59  57  94 W5        30.12R
LORAIN-ELYRIA  CLOUDY    56  52  86 W6        30.14R FOG
ASHTABULA      CLOUDY    54  52  93 CALM      30.12R
AKRON-CANTON   CLOUDY    53  50  89 W5        30.12R FOG
WOOSTER        CLOUDY    54  52  94 NW9       30.14R FOG
MANSFIELD      CLOUDY    52  52 100 NW5       30.15R FOG
YOUNGSTOWN     FOG       51  50  96 CALM      30.11R VSB 1/16
$$

OHZ042-051>053-060>062-070>072-077>081-161300-
  SOUTHWEST OHIO

CITY           SKY/WX    TMP DP  RH WIND       PRES   REMARKS
CINC-COVINGTON CLOUDY    58  55  90 N8        30.14R
CINC-LUNKEN    CLOUDY    59  57  93 N5        30.15R
HAMILTON       CLOUDY    57  54  89 N8        30.17R
DAYTON         CLOUDY    54  51  90 N9        30.18R
WRIGHT-PAT AFB CLOUDY    54  51  91 N6        30.17R
DAYTON GENERAL CLOUDY    53  51  93 N7        30.16R
WILMINGTON     CLOUDY    55  52  89 N8        30.15R
$$

OHZ036-037-039>041-045>050-054>059-063>069-073>076-082>088-161300-
  CENTRAL AND SOUTHEAST OHIO

CITY           SKY/WX    TMP DP  RH WIND       PRES   REMARKS
COLUMBUS       CLOUDY    56  49  77 N7        30.14R
OSU AIRPORT    CLOUDY    53  50  89 N10       30.15R
BOLTON FIELD   MOCLDY    54  50  87 N10       30.15S
RICKENBACK AFB CLEAR     53  49  86 CALM      30.15R
NEWARK         MOCLDY    53  50  89 VRB3      30.14R
MARION         CLOUDY    53  50  89 N9        30.16R FOG
LANCASTER      CLEAR     53  51  93 NW5       30.15R
ZANESVILLE     CLOUDY    56  53  90 NW3       30.13R
NEW PHILLY     CLEAR     52  51  97 CALM      30.13S
$$


USA.gov is the U.S. government's official web portal to all federal, state and local government web resources and services.